Theta_e
316 321 320 320 322 321 318 319 322 321 318 317 318 320 319 316 317 317 317 317 315 316 321 327 329 328 329 328 328 330 329 329 329 328 327 326 324 323 323 322 321 320 319 318 316 314 313 312 312 312 311 311 310 310 309 308 308 307 307 306 306 306 305 305 304 304 305 304 304 304 305 306 309 312 315 318 319 323 326 327 326 326 327 328 328 329
322 324 322 321 321 318 317 319 319 318 317 317 318 318 316 317 318 317 317 317 316 316 317 324 330 329 328 327 327 329 327 328 328 328 327 326 325 324 324 323 322 320 320 319 316 313 311 311 310 310 309 309 308 308 307 306 306 306 305 305 305 304 304 304 304 304 304 304 304 304 304 304 304 305 307 308 309 312 317 321 324 324 324 326 327 327
329 324 323 320 316 315 316 318 318 317 318 319 318 317 317 318 318 318 319 317 316 317 315 320 327 327 327 326 326 328 327 327 328 328 328 326 325 324 324 324 324 323 322 320 316 312 311 310 309 308 307 307 308 308 307 305 305 304 304 304 304 305 304 304 303 304 304 304 305 305 305 305 305 305 306 307 307 307 309 313 318 321 323 324 325 325
327 323 323 318 314 316 317 316 317 318 319 318 318 319 319 318 317 319 321 317 316 318 315 318 321 322 325 326 325 326 326 327 327 326 327 326 325 325 324 324 324 323 322 320 316 312 310 309 308 307 306 307 308 307 305 304 304 303 303 303 303 304 304 304 303 303 304 305 306 306 306 307 309 310 311 312 312 312 310 311 315 319 322 324 325 325
324 321 319 315 316 318 317 316 318 320 319 317 318 319 320 319 317 317 320 317 316 316 315 320 321 319 322 325 325 326 324 325 325 325 327 326 325 324 324 324 323 322 321 319 317 314 311 309 308 306 305 305 307 306 305 304 303 303 303 302 303 303 303 303 303 303 304 304 304 305 306 308 312 314 316 316 316 315 314 313 316 320 322 324 325 325
322 317 314 315 316 316 318 318 318 322 321 317 318 320 318 318 317 316 317 316 314 314 317 321 320 323 328 326 323 324 324 324 324 324 324 324 324 324 323 323 323 322 321 319 318 315 311 308 306 305 304 304 304 305 305 304 304 303 302 303 303 303 303 303 303 303 303 304 305 306 308 311 314 316 318 319 319 318 317 316 316 318 322 324 324 323
320 316 315 315 314 317 322 320 317 322 322 318 322 322 317 317 317 316 315 315 316 316 320 319 318 326 331 326 322 323 323 323 324 323 323 323 324 324 324 323 323 322 321 320 319 315 311 308 306 305 304 304 303 303 304 304 304 303 303 303 304 304 304 303 302 303 304 306 308 310 313 316 317 318 319 320 321 321 321 320 318 317 318 321 323 323
319 319 318 317 317 321 325 320 316 322 322 321 325 321 317 318 316 316 315 316 319 319 321 325 325 327 328 328 328 324 320 322 323 323 322 323 323 323 324 323 323 322 321 321 319 315 311 308 307 306 305 304 304 304 304 304 304 304 303 304 305 305 303 303 305 307 309 310 311 313 316 317 319 320 320 321 322 322 322 322 321 320 318 318 319 321
318 320 318 318 320 320 322 320 317 320 321 324 325 318 317 317 315 317 314 315 321 318 319 327 325 321 328 336 331 323 321 321 323 324 322 322 323 323 323 323 323 322 321 320 318 315 311 308 306 305 305 305 304 305 305 305 304 304 304 304 305 305 302 305 309 311 313 314 313 315 317 318 319 321 321 321 322 322 323 323 323 323 321 320 318 318
317 319 317 318 320 319 320 321 319 319 319 321 319 317 320 321 321 321 317 321 327 320 318 324 322 319 329 338 326 318 323 322 321 324 322 322 323 322 322 322 322 322 320 319 318 315 311 309 307 305 304 304 304 305 305 305 305 304 304 303 304 303 302 306 311 313 315 315 314 315 317 317 319 321 320 321 321 322 322 323 323 323 323 323 322 321
317 316 317 317 318 318 318 317 318 316 316 316 316 319 324 328 331 333 333 333 329 323 324 327 326 321 325 334 328 321 327 325 321 323 323 322 322 321 322 321 321 321 320 319 317 314 311 309 307 305 305 305 304 305 305 305 305 304 304 303 302 302 303 306 310 313 315 314 314 316 317 317 319 320 320 320 321 321 321 322 323 323 323 324 324 323
320 317 317 316 315 317 318 318 318 317 316 316 318 322 324 328 333 338 339 334 325 324 330 329 326 322 322 333 334 328 330 324 319 322 322 322 321 320 321 320 320 320 319 319 317 313 310 309 307 306 305 306 305 306 306 305 305 305 304 302 301 302 304 307 311 314 314 314 316 317 317 318 319 320 320 320 320 321 321 321 322 322 323 323 323 323
323 320 316 315 315 316 318 320 321 324 324 318 321 327 327 327 330 334 332 327 323 326 329 328 326 322 323 330 330 328 329 322 317 320 321 321 321 320 320 319 320 320 319 319 317 312 309 309 309 308 306 306 306 306 306 305 305 305 304 302 300 301 305 309 313 314 315 315 316 317 317 318 319 319 319 319 320 320 320 321 321 321 322 322 322 322
330 326 318 316 318 317 318 321 321 323 324 318 319 326 330 329 328 329 328 324 325 330 330 327 325 324 325 327 327 326 325 319 317 319 321 322 321 319 320 320 319 320 319 319 316 311 311 311 310 309 308 307 307 307 306 306 305 305 305 303 302 302 307 311 314 314 315 317 317 317 317 318 319 319 318 318 319 320 320 320 320 320 321 321 322 322
326 326 323 319 319 317 317 321 322 321 322 320 320 323 326 330 329 327 328 327 328 331 329 324 323 326 326 326 328 323 318 318 318 319 321 321 320 320 319 319 319 319 318 318 315 312 313 313 311 311 310 309 309 309 308 308 306 306 306 305 302 304 309 313 314 314 315 316 317 317 317 318 318 318 318 318 318 319 319 320 319 319 319 320 321 321
322 324 327 320 316 317 315 318 319 319 321 321 320 321 321 327 334 329 327 331 330 326 326 324 324 330 328 325 328 321 315 318 318 318 320 320 320 320 319 319 319 318 318 317 315 315 315 315 313 313 312 312 313 312 311 310 308 308 308 306 303 305 310 314 314 313 314 315 316 316 316 317 318 318 318 318 318 318 319 319 319 318 319 320 321 321
323 325 327 319 315 318 316 317 316 316 322 323 319 323 321 320 329 329 324 329 328 323 326 325 324 331 328 324 329 326 319 320 319 318 319 319 319 319 319 319 318 318 318 317 316 316 317 316 315 314 314 315 315 314 313 312 310 310 310 307 304 306 310 313 314 313 313 314 315 315 315 316 317 317 318 318 318 318 319 319 319 319 319 320 320 321
322 325 327 321 318 320 316 317 319 315 320 324 319 323 324 319 328 332 326 327 326 324 329 327 322 327 328 326 329 326 322 322 323 321 318 319 319 318 319 319 318 319 318 317 318 317 317 317 316 315 315 315 315 314 313 313 311 311 311 308 306 307 309 312 314 314 313 314 313 313 314 315 316 317 318 318 318 319 319 319 320 320 320 320 320 321
323 326 327 324 318 320 319 317 321 320 318 320 319 321 321 320 328 330 325 327 327 322 327 329 323 320 325 332 330 322 322 324 324 323 319 319 319 318 318 318 318 319 318 318 318 318 317 317 316 316 315 315 315 315 314 313 312 311 311 309 307 308 309 309 312 314 313 313 313 312 314 314 315 317 318 319 319 319 319 319 320 320 321 320 320 321
325 323 327 328 318 316 323 320 322 327 322 318 319 323 326 326 328 326 321 326 328 323 325 330 329 324 328 337 332 323 325 325 324 326 322 318 319 318 318 318 318 319 318 318 318 318 317 317 316 316 315 315 315 315 314 313 312 310 311 310 307 309 310 309 311 313 313 313 313 313 314 315 315 317 319 319 319 318 318 319 320 320 320 321 321 321
327 321 324 330 322 318 323 321 322 326 323 322 322 324 330 329 325 324 322 324 327 327 327 327 330 335 334 330 326 325 326 323 323 325 321 318 319 319 318 319 318 318 318 318 318 318 317 317 317 316 314 314 315 314 313 313 312 311 311 310 306 308 309 308 311 313 313 313 313 313 314 315 316 318 318 318 318 318 318 319 319 319 319 319 319 319
327 322 322 327 325 323 324 321 318 319 323 328 328 327 332 332 327 325 326 328 329 329 330 325 325 337 338 325 323 327 325 320 320 320 319 319 319 319 319 319 318 318 318 318 318 318 317 317 317 316 314 314 315 314 313 313 312 312 311 309 307 307 306 307 311 313 312 313 312 312 314 315 316 317 317 317 317 317 317 318 318 318 317 317 317 317
324 326 323 324 325 321 319 317 313 317 325 329 330 332 334 334 333 330 329 333 330 326 329 327 324 336 342 328 324 327 321 317 318 318 318 319 319 320 320 319 319 319 318 318 318 318 317 317 317 316 315 315 314 314 313 313 313 312 310 309 309 308 305 307 312 313 312 313 312 312 314 316 316 317 316 317 316 316 316 317 317 317 316 315 314 314
324 326 324 326 329 325 322 322 319 323 328 326 328 331 327 327 332 332 333 334 328 324 329 326 324 337 343 327 318 319 317 316 317 318 319 319 320 320 319 319 319 318 318 318 318 318 317 317 317 317 316 315 314 313 313 313 312 311 310 309 309 308 304 305 310 312 313 312 311 312 314 315 316 316 316 316 316 316 316 316 316 316 315 315 313 312
322 326 327 327 328 329 332 333 329 327 324 322 326 328 324 325 327 326 329 329 324 327 331 327 327 338 340 328 319 317 317 316 315 317 318 319 320 319 319 319 319 318 318 318 317 318 317 317 317 316 316 315 314 314 313 313 311 310 310 309 309 308 304 302 308 313 313 312 312 312 314 315 315 315 315 315 315 315 315 316 316 315 315 314 313 312
322 327 332 329 326 328 331 330 325 323 321 322 326 325 322 323 323 323 327 326 326 330 329 327 333 338 334 328 325 322 320 319 317 317 318 318 319 320 319 318 318 318 318 318 318 317 317 317 317 316 316 316 314 314 313 312 311 310 310 310 308 307 305 302 307 312 312 312 312 312 313 314 314 314 314 314 314 314 314 315 315 315 314 313 313 311
324 326 332 334 331 330 329 326 324 322 320 322 324 323 321 321 324 326 326 327 330 330 327 330 334 332 330 329 327 324 324 323 320 317 316 318 319 320 319 318 319 319 318 318 318 317 317 318 316 315 316 315 314 313 312 312 311 310 309 309 308 308 306 303 306 310 310 311 312 311 312 313 313 313 313 313 313 313 313 313 313 313 313 313 313 310
327 323 325 328 327 328 327 325 324 321 320 320 320 322 322 323 325 323 322 328 331 324 327 336 333 324 329 335 330 326 326 326 321 316 315 318 318 319 320 319 319 318 318 318 317 317 318 317 315 315 315 314 313 313 312 312 311 310 309 309 308 308 306 303 306 310 310 311 312 311 312 313 312 312 312 312 312 312 312 312 310 311 312 312 311 308
327 323 322 321 322 327 327 324 323 321 319 320 320 321 322 324 326 322 321 327 328 321 326 336 331 324 329 335 332 327 323 322 321 317 316 317 318 319 320 319 319 318 318 318 317 318 318 317 316 315 314 314 314 313 313 312 311 310 309 309 308 307 304 304 307 310 310 311 312 311 312 312 311 311 311 312 311 311 312 311 308 308 310 310 308 306
324 327 326 321 322 328 328 323 322 321 320 320 320 320 320 322 325 325 323 324 325 323 324 328 327 325 325 325 326 324 319 317 318 318 317 317 318 319 319 319 319 318 317 318 317 317 317 317 317 316 315 315 314 313 314 313 312 311 308 309 308 305 304 305 307 310 311 310 311 311 311 311 311 311 311 311 311 311 310 309 305 303 304 305 303 302
320 327 327 323 323 328 329 325 323 322 321 320 321 322 322 322 323 322 321 322 322 322 323 324 324 325 323 319 317 318 317 317 317 317 317 318 319 319 319 319 319 318 318 318 317 318 318 317 317 316 315 315 314 314 315 314 313 311 308 308 308 305 305 305 306 309 310 309 311 311 311 311 311 311 310 310 310 310 309 307 304 302 300 300 299 298
321 325 327 325 323 326 329 325 323 323 320 320 324 326 324 323 323 322 322 324 323 321 322 322 321 324 323 317 313 315 316 315 316 317 317 318 319 319 319 319 319 319 318 318 318 318 317 316 317 316 315 315 315 315 316 315 313 310 308 308 307 305 304 304 306 309 309 309 311 312 311 310 310 310 309 308 308 309 308 307 306 303 301 300 298 297
326 326 327 325 322 326 329 324 322 322 320 324 331 327 319 320 322 323 324 327 325 322 323 324 323 325 324 318 317 319 318 315 317 318 317 318 319 319 319 319 319 319 319 319 318 318 317 317 317 317 316 316 316 315 316 315 312 310 308 307 306 304 302 303 307 309 309 309 310 311 311 310 309 309 308 306 305 306 307 308 307 304 301 301 299 297
326 326 326 324 321 327 330 325 321 320 320 328 333 323 316 318 321 320 323 328 328 326 326 326 325 326 325 321 322 322 320 318 318 318 318 319 319 319 319 319 319 319 319 319 318 318 318 317 317 317 317 316 316 316 316 314 313 311 308 306 305 302 300 303 307 309 308 309 310 310 310 309 308 307 307 305 304 304 306 306 304 301 301 301 299 297
325 325 325 323 321 325 329 324 322 323 325 327 326 320 317 318 320 321 325 333 332 327 325 324 323 323 320 317 318 317 317 318 318 318 319 318 318 319 319 318 319 318 318 318 318 318 318 317 317 317 316 316 316 316 315 315 314 309 306 305 304 300 300 305 308 309 308 309 310 310 309 307 305 304 303 302 301 302 304 303 300 300 301 301 299 297
327 327 323 321 321 323 324 322 321 324 326 324 321 320 319 320 323 323 326 334 334 326 322 322 321 319 315 313 315 316 315 317 318 318 318 318 318 319 318 318 318 317 317 317 317 318 318 317 317 317 316 316 316 316 315 315 312 307 305 305 303 300 302 306 307 308 308 309 309 308 306 304 303 301 300 300 299 300 302 301 301 302 302 301 300 299
324 326 322 320 319 320 322 324 323 321 322 324 323 321 319 320 325 324 323 329 330 322 318 320 321 318 314 315 317 316 316 317 318 318 318 318 319 318 318 318 318 317 318 317 316 317 317 317 317 317 316 316 316 316 315 314 310 306 304 304 302 301 304 306 306 306 307 308 308 307 305 302 302 301 300 299 298 299 301 302 304 305 304 302 302 302
319 322 322 321 319 318 319 321 323 320 322 326 327 322 318 317 321 322 321 324 324 318 315 319 321 317 314 316 316 316 318 323 323 322 319 317 318 318 318 318 317 317 318 317 317 317 316 317 317 317 316 316 316 316 315 312 308 305 304 302 302 303 304 306 306 305 305 306 306 305 304 301 301 301 300 299 299 299 301 303 304 305 304 303 303 303
318 319 322 322 320 320 318 319 322 321 321 327 328 321 317 316 317 318 321 325 324 317 315 318 319 317 315 316 315 317 324 328 326 322 318 317 318 318 318 318 317 317 317 317 317 316 316 316 317 316 316 316 316 315 314 311 307 304 303 302 302 304 304 306 306 304 303 304 304 304 303 301 300 300 300 299 299 299 301 303 303 304 304 303 302 303
320 319 320 321 321 322 321 321 322 320 321 328 328 320 316 316 315 316 322 329 326 317 315 318 317 316 317 317 316 320 326 328 324 319 317 317 318 317 317 317 316 316 317 317 316 316 316 316 316 316 316 316 315 315 313 309 305 303 302 302 303 303 303 304 305 304 302 302 302 302 302 302 301 300 300 300 299 299 300 302 302 302 301 300 302 303
323 321 320 320 321 321 321 321 321 321 325 328 324 317 315 315 317 319 324 328 323 316 316 317 316 317 317 317 317 319 321 320 319 318 317 317 317 317 317 316 316 316 316 316 316 316 316 316 316 316 316 315 315 314 310 307 305 303 303 303 303 302 302 303 304 304 303 302 301 301 301 301 301 301 300 300 299 298 299 300 301 300 299 299 301 303
325 323 321 320 320 321 321 321 320 321 324 320 316 316 315 317 323 325 324 321 317 316 317 317 317 317 316 316 317 317 317 317 317 317 317 316 317 317 317 317 316 316 316 316 316 316 316 316 316 316 316 315 314 312 308 306 306 305 304 304 303 302 303 304 305 305 304 302 301 301 300 300 300 300 300 300 299 298 298 300 301 301 301 301 302 302
324 324 325 324 322 321 320 320 320 323 324 317 314 317 318 321 326 324 318 317 317 317 317 317 317 317 316 316 317 316 317 317 317 317 317 316 316 317 316 316 316 316 316 316 316 316 315 316 316 315 315 314 312 309 307 306 307 306 304 304 303 303 304 305 306 306 304 301 300 300 300 300 300 300 300 299 299 298 298 300 302 303 303 304 303 302
322 324 327 326 323 323 323 322 321 322 322 317 315 318 319 320 321 318 316 318 318 316 317 317 317 317 317 317 316 316 317 317 317 317 317 316 316 316 316 316 316 316 316 316 316 316 316 315 315 315 314 313 311 308 307 307 307 306 304 303 303 303 306 306 306 306 304 301 300 300 300 300 300 300 300 299 299 299 300 301 302 303 304 304 303 302
323 323 323 323 323 323 324 324 320 317 316 316 316 318 317 317 317 317 317 318 317 317 318 317 317 317 317 317 317 316 317 317 316 317 317 316 317 316 316 316 316 316 316 316 316 316 316 315 316 315 314 313 311 309 308 307 306 305 303 303 303 304 306 306 306 306 304 301 299 300 300 300 300 300 300 299 299 300 301 301 302 302 303 303 303 302
320 316 316 320 323 321 319 319 317 314 316 317 316 317 317 317 317 317 317 317 318 317 317 317 317 317 317 317 317 317 316 317 316 316 317 316 317 316 316 316 316 316 316 316 316 316 316 316 316 315 314 314 312 311 309 307 307 305 303 303 304 304 305 305 305 305 303 300 299 300 300 300 300 300 300 300 300 301 301 301 302 301 301 302 302 302
320 315 316 321 322 321 322 323 319 315 316 317 316 317 317 317 317 317 317 317 317 317 318 318 317 317 317 317 317 317 317 317 316 316 316 316 316 316 316 316 316 316 316 316 316 316 316 316 316 315 315 314 313 311 310 309 309 307 303 303 305 305 305 305 305 304 302 300 300 300 300 300 300 300 299 300 301 301 301 301 301 301 300 300 299 299
319 317 322 325 322 319 322 322 318 315 316 317 316 317 317 316 317 317 316 317 316 316 317 317 317 317 317 317 317 317 317 317 316 317 317 316 317 317 316 316 316 316 316 316 316 316 315 316 316 315 315 315 313 311 310 310 310 308 305 303 304 305 305 304 304 304 302 300 300 301 300 299 300 300 300 300 301 301 301 301 301 300 299 298 298 298
317 318 323 324 322 320 319 316 314 315 317 315 315 316 316 316 316 316 315 316 316 316 316 316 316 317 317 317 317 317 316 317 317 317 317 316 316 316 316 316 316 316 316 316 316 316 316 316 315 315 315 315 314 312 310 309 310 309 307 304 303 304 305 304 304 304 302 300 300 301 300 299 299 300 300 300 300 301 302 302 302 301 299 298 299 298
316 319 319 319 320 320 318 315 314 316 316 315 315 315 316 316 316 315 315 315 315 315 316 316 316 316 316 316 316 316 317 317 317 316 317 316 316 317 316 316 316 317 316 316 316 316 316 315 315 315 315 315 315 313 311 310 309 310 309 306 304 303 304 304 304 304 303 301 300 300 300 299 299 300 300 300 301 301 302 302 302 301 299 298 299 299
316 317 317 318 319 318 316 314 314 315 314 314 315 315 315 316 315 315 315 315 315 315 315 315 315 316 316 316 316 316 317 317 317 317 317 316 317 316 316 316 317 317 317 317 316 316 316 315 315 315 315 315 315 314 313 311 309 309 309 308 306 303 303 304 305 305 303 301 300 300 300 299 299 300 300 300 301 301 302 302 301 300 299 298 299 299
Wind_Speed
2 2 1 3 5 3 6 6 6 5 7 6 4 4 3 4 2 2 2 4 5 7 4 10 13 12 12 10 13 19 19 20 21 20 20 21 22 23 23 23 23 21 18 15 14 13 12 12 12 12 12 13 13 13 12 11 10 9 8 7 7 7 7 6 5 6 6 7 8 9 11 13 15 16 18 19 20 21 21 20 18 16 15 15 15 15
2 3 3 6 7 6 4 6 5 4 8 7 5 4 2 3 2 2 0 4 4 6 2 8 12 11 11 10 13 20 17 16 23 24 21 22 24 24 23 23 23 21 18 15 15 15 14 14 14 13 14 13 13 12 11 10 9 8 7 6 5 5 4 4 4 5 6 7 9 10 11 13 14 15 17 18 19 20 21 22 21 19 17 16 16 16
3 1 5 7 5 4 1 6 5 4 7 6 4 5 2 2 1 3 2 2 3 5 4 7 10 9 11 12 15 21 21 22 30 30 28 27 26 25 26 26 26 23 20 18 17 17 15 15 14 13 12 11 10 9 8 8 7 6 5 4 4 5 5 6 6 7 8 9 10 11 12 13 14 15 16 17 17 18 19 19 19 19 18 18 16 15
2 3 7 7 4 4 3 4 6 6 5 5 4 4 2 3 1 1 4 2 2 2 6 7 6 5 9 11 12 22 26 25 30 33 33 32 30 30 31 31 31 28 24 21 18 17 15 14 12 11 10 10 10 9 8 7 6 5 4 4 5 6 7 7 8 10 10 10 11 12 13 14 14 14 14 15 15 15 17 17 17 16 16 16 14 13
3 5 4 4 5 4 5 4 7 6 3 4 4 4 3 3 4 4 3 2 2 2 4 6 4 2 7 10 9 15 18 17 23 27 27 28 28 29 31 31 31 29 24 22 20 17 15 13 12 11 10 10 10 10 8 7 6 6 5 5 6 7 8 8 9 11 11 12 13 13 14 13 11 11 12 12 11 11 12 14 16 15 14 13 12 11
2 2 2 4 6 4 6 4 3 6 4 2 4 5 6 6 5 5 2 1 3 3 2 5 4 2 2 8 11 10 9 9 17 22 23 25 25 28 31 31 31 27 23 21 19 17 15 14 13 12 11 11 10 10 8 7 6 5 6 6 7 8 8 9 10 11 12 13 14 15 14 12 11 10 11 11 11 11 11 11 12 14 15 13 12 13
1 4 6 3 3 4 6 3 2 5 5 2 5 6 7 6 6 7 5 3 1 3 4 3 5 3 4 3 9 10 9 10 14 18 22 25 27 31 34 33 33 29 26 24 20 18 17 16 15 14 12 11 10 9 8 7 6 5 6 6 7 8 8 8 9 10 11 12 14 14 13 12 12 12 11 10 10 11 12 12 11 11 13 15 15 14
1 6 8 5 4 4 4 2 2 5 7 3 5 5 6 5 6 9 9 6 4 2 3 4 5 3 2 4 6 8 10 10 13 15 18 24 29 32 35 35 35 32 30 28 23 19 17 15 15 13 11 10 8 7 6 5 5 4 5 6 7 7 7 7 8 9 10 12 14 12 11 10 10 9 8 8 8 9 10 11 9 8 8 11 13 15
0 3 3 4 6 3 1 3 3 5 4 5 7 3 2 3 3 6 9 5 2 3 2 4 3 3 3 5 3 4 7 8 14 15 15 22 27 30 33 34 35 34 31 27 23 19 17 15 13 11 10 9 7 5 4 3 3 4 5 7 7 7 6 5 6 8 9 11 12 10 9 8 7 6 6 7 6 6 7 8 6 5 5 6 8 11
1 3 5 6 4 1 3 5 3 5 2 4 3 3 4 4 3 4 6 3 3 4 2 5 1 2 3 5 2 2 4 7 10 11 15 23 28 30 31 33 34 34 31 27 22 18 16 14 12 10 9 8 7 5 3 3 3 5 6 7 8 6 5 4 6 7 7 10 11 8 7 7 6 5 5 6 6 5 5 6 5 4 4 4 5 7
2 1 3 5 2 3 2 4 3 2 2 2 5 5 5 6 5 4 3 4 5 2 4 6 3 4 1 5 3 3 5 8 9 8 11 20 25 29 32 35 36 35 31 27 22 18 15 13 12 11 10 9 8 5 4 3 3 5 6 7 8 6 4 4 6 8 9 11 10 6 6 7 6 6 6 6 7 6 6 7 6 6 4 2 2 3
4 3 1 2 5 3 3 4 7 7 3 4 5 4 3 5 5 4 5 4 4 2 5 4 2 5 1 5 4 5 6 8 13 11 10 16 23 28 32 35 37 35 31 27 24 20 18 16 14 12 11 10 8 6 3 2 4 6 6 6 7 5 4 5 7 10 10 9 7 6 6 6 6 7 7 7 8 7 8 8 7 7 6 4 3 2
3 1 2 1 3 2 5 3 6 8 6 5 4 5 4 2 4 3 3 3 0 4 5 3 1 1 3 6 6 7 7 6 14 19 19 22 26 29 32 34 36 36 33 29 26 24 23 21 16 14 13 11 7 4 2 2 4 5 4 5 5 4 3 5 7 8 9 8 7 6 6 6 6 6 6 7 8 8 8 8 7 8 7 5 6 5
3 4 3 3 3 1 5 3 2 3 4 3 0 3 4 2 3 1 3 2 1 4 5 3 1 1 4 5 7 8 8 10 19 29 32 33 33 34 36 37 37 36 34 31 30 28 26 23 18 16 15 11 7 4 2 2 3 3 5 7 5 2 2 4 5 6 7 7 7 6 5 5 5 5 6 6 7 7 7 7 7 7 7 7 7 7
2 4 3 1 2 1 3 3 5 3 2 2 2 5 4 3 4 2 3 2 3 3 4 3 1 2 2 4 7 7 9 12 21 30 33 33 35 37 37 37 37 36 35 33 32 30 26 22 18 17 15 12 8 4 2 1 3 4 7 8 5 2 2 3 4 6 6 4 4 5 5 5 4 4 5 5 6 6 6 6 7 7 7 7 7 6
3 3 6 2 2 4 2 2 4 4 2 3 1 5 1 3 5 2 2 4 3 1 2 2 2 3 3 4 6 1 4 7 16 25 26 25 30 34 34 35 37 36 36 35 33 30 27 22 19 18 16 13 9 4 2 2 3 5 7 7 4 2 2 2 3 6 6 6 6 7 7 6 4 4 4 4 5 5 5 5 6 6 6 6 4 3
2 3 7 3 1 4 4 3 3 5 1 2 2 1 3 3 6 3 1 0 3 2 3 1 2 4 2 3 6 5 6 6 11 18 23 24 28 33 34 35 37 37 37 36 34 30 27 24 21 19 16 15 11 6 3 2 1 3 5 6 5 3 2 2 3 5 7 7 8 9 9 8 6 5 4 4 4 4 4 4 4 4 4 3 2 1
3 2 7 2 3 6 4 3 1 5 6 2 1 3 1 3 4 4 1 3 4 0 4 2 3 4 2 1 5 5 5 5 6 11 19 23 27 31 33 37 39 39 38 37 33 30 27 25 23 20 17 15 10 6 4 3 2 1 3 6 6 4 4 4 3 4 7 8 9 9 9 9 6 4 4 4 4 4 4 4 4 3 3 3 2 2
4 1 7 3 1 6 2 4 3 2 3 5 3 2 3 3 1 1 1 0 1 1 3 4 3 2 2 3 3 0 5 7 6 8 13 17 23 29 33 36 38 39 39 37 35 32 29 27 24 21 18 14 10 7 5 4 4 2 2 4 5 5 5 5 4 4 6 9 11 8 5 6 5 2 3 3 3 3 4 5 5 4 3 3 3 2
3 3 4 5 3 4 4 3 1 4 3 3 2 3 3 3 3 1 1 2 2 1 2 3 3 1 4 5 4 6 7 9 9 7 9 17 24 29 33 36 38 40 40 38 37 34 30 27 24 20 17 13 11 9 7 7 7 4 3 3 4 5 6 7 6 4 5 8 10 6 2 2 1 1 2 2 2 3 4 5 5 5 5 4 4 3
3 3 2 6 5 3 1 0 3 3 1 2 1 1 2 1 1 1 1 2 3 3 2 1 2 4 5 4 6 8 7 9 11 9 10 18 25 28 34 38 40 41 41 39 37 34 30 27 23 19 15 12 12 12 10 9 8 6 4 4 4 5 7 8 7 4 4 7 9 4 2 2 3 4 4 2 2 3 5 6 5 6 5 4 4 4
1 2 2 4 4 1 4 5 3 4 5 5 4 3 3 2 2 2 2 2 1 3 4 3 2 6 6 3 4 6 6 8 14 14 13 19 24 27 33 38 39 40 40 39 37 34 30 27 24 19 16 15 16 15 13 12 9 7 5 4 4 6 6 7 8 4 2 5 9 3 3 4 6 7 5 3 2 3 4 5 5 6 5 4 4 4
2 3 1 3 4 4 7 7 4 3 2 4 2 2 3 3 4 4 2 3 0 0 1 2 1 6 5 3 4 6 6 10 16 18 17 21 26 29 33 36 37 37 37 37 36 33 29 27 24 20 17 17 17 16 16 14 10 7 5 4 4 7 5 7 10 4 2 4 8 4 5 7 9 9 6 4 3 3 3 5 5 5 5 5 6 5
2 3 2 3 4 5 7 6 3 4 5 4 2 1 2 2 3 5 5 3 2 2 0 1 2 5 6 4 5 7 7 10 14 17 18 22 27 30 32 34 35 35 36 36 34 32 29 26 23 20 18 18 18 18 18 14 10 6 5 4 5 7 4 5 10 5 1 3 7 5 7 9 9 8 6 5 4 3 3 4 4 4 4 5 6 6
1 1 2 2 4 6 6 6 6 6 5 2 3 3 0 1 2 1 1 3 1 4 4 3 3 6 5 4 2 3 4 7 10 13 17 22 26 28 28 30 32 33 34 35 34 31 29 25 22 20 19 19 20 20 17 13 9 6 6 5 5 6 4 2 9 8 3 2 6 6 9 11 9 8 6 5 4 3 3 3 3 2 3 4 6 6
1 2 3 3 1 2 1 1 2 3 4 3 4 6 4 2 4 2 1 2 2 4 4 5 4 6 6 5 5 4 2 3 4 7 12 16 23 27 28 28 30 32 33 35 34 31 29 25 21 20 21 21 21 21 17 13 9 7 8 7 5 5 5 1 10 11 5 3 6 7 10 10 8 7 5 4 3 3 2 1 1 2 2 4 5 6
3 1 1 5 5 5 5 4 4 2 2 4 6 8 8 4 2 4 2 1 3 2 1 4 5 3 6 6 5 5 4 4 6 9 12 13 18 26 30 31 32 33 33 33 33 32 29 26 22 20 22 23 23 21 17 13 10 9 9 7 5 6 5 2 9 10 6 5 6 8 10 9 8 7 6 5 3 3 3 2 1 1 2 3 4 5
4 2 2 4 4 5 6 6 5 2 2 4 5 6 9 9 4 1 2 4 4 2 4 6 5 3 6 7 5 6 6 6 8 13 16 16 18 24 29 31 32 33 33 32 33 33 30 28 24 23 23 25 24 21 18 13 11 10 9 6 5 6 5 4 8 8 8 8 7 8 8 8 8 7 6 5 3 3 3 2 1 2 0 1 3 4
5 1 3 2 2 5 4 5 5 2 3 5 5 7 8 8 7 6 7 6 6 4 7 7 6 6 7 6 7 9 10 11 13 17 21 21 21 25 29 30 32 33 33 33 33 33 32 30 28 25 24 24 23 21 18 14 12 10 9 7 6 6 4 4 7 8 9 10 8 7 8 8 7 6 6 5 4 3 2 1 2 2 2 2 2 5
5 1 4 2 2 5 5 5 4 4 4 6 7 8 7 8 9 8 8 7 6 7 8 7 7 8 8 7 9 13 16 17 17 17 19 20 23 26 29 31 33 34 35 34 33 33 33 32 30 27 25 24 24 22 18 15 13 12 10 10 8 6 4 5 8 9 9 9 9 9 8 8 7 6 6 6 5 4 2 1 2 3 2 1 2 4
3 2 4 2 3 5 6 5 5 4 4 5 8 9 7 7 7 6 6 6 6 7 8 7 7 7 7 10 13 18 19 16 13 15 16 19 24 28 30 32 34 36 37 36 34 35 35 33 31 28 26 26 25 23 19 16 14 13 13 12 9 7 5 5 8 9 9 10 10 10 9 9 8 7 7 7 7 5 3 2 3 5 5 5 5 6
2 1 2 4 3 5 5 4 6 6 5 5 7 7 6 6 6 5 6 5 6 6 7 6 5 5 7 8 10 14 15 11 11 14 16 21 27 31 33 33 35 37 38 37 37 37 37 35 33 30 28 28 27 24 21 17 15 14 14 13 10 7 6 7 8 10 10 11 11 10 9 9 9 8 7 8 9 7 4 4 4 5 5 6 7 8
4 2 1 2 0 5 5 3 4 5 6 5 5 3 3 5 6 7 6 5 5 5 4 4 5 6 6 5 4 7 10 9 10 13 17 23 30 32 32 32 34 36 36 36 37 39 38 37 34 32 30 29 28 25 21 17 14 13 13 13 11 9 9 10 11 11 11 11 12 11 10 9 9 9 6 6 8 8 6 5 3 3 4 5 7 8
4 5 2 2 2 4 6 4 5 4 3 5 5 3 2 6 8 8 7 7 5 3 3 4 5 5 6 6 6 7 9 9 10 13 17 22 26 29 30 31 34 36 36 36 36 37 39 38 35 32 30 29 28 24 19 16 13 12 13 12 11 11 11 12 13 12 11 13 13 12 11 10 9 9 7 5 7 8 7 5 3 4 5 5 7 9
3 4 2 1 2 3 3 5 5 3 6 7 7 7 7 7 7 7 7 6 6 5 5 6 7 7 9 11 12 13 13 12 13 17 19 21 23 25 28 28 29 31 32 33 35 37 38 37 36 34 31 30 27 23 18 16 14 13 14 13 12 12 13 13 14 13 13 14 13 12 11 10 9 9 7 6 7 8 8 6 4 5 7 7 8 9
5 4 2 1 2 1 2 3 0 5 7 7 8 9 6 3 0 1 4 6 6 5 5 7 9 9 11 15 16 15 14 11 11 14 18 20 20 21 22 21 19 18 17 19 27 34 37 37 36 34 32 30 27 22 19 16 15 14 14 13 13 14 14 14 14 15 14 14 14 12 11 10 9 9 8 8 8 9 9 7 5 5 7 8 9 9
7 4 2 2 2 1 1 2 2 4 8 8 5 2 1 2 2 3 1 6 7 5 6 7 9 9 11 14 13 8 5 3 3 4 9 15 16 14 16 17 15 13 11 9 12 20 29 36 36 34 33 31 26 21 18 16 15 15 15 15 16 16 15 14 14 15 15 15 14 12 11 10 9 9 9 8 9 10 10 9 6 5 6 7 9 9
7 4 4 3 2 2 1 3 2 3 5 6 6 6 5 5 5 7 3 5 7 6 5 2 4 7 6 5 3 4 8 7 3 2 4 11 14 13 14 15 14 13 12 9 8 12 22 32 36 35 33 30 24 20 18 16 15 16 17 17 18 18 16 14 14 15 17 16 14 13 12 11 9 9 9 9 10 11 11 9 6 5 4 5 6 7
4 2 5 4 2 2 2 3 2 2 5 7 9 9 5 3 2 4 4 6 7 4 3 7 6 6 7 7 5 6 7 4 3 4 1 6 12 14 14 14 12 11 10 10 10 11 18 28 34 35 31 26 22 20 18 16 16 17 18 19 20 19 16 15 15 15 16 16 15 13 12 11 10 10 10 10 10 11 11 9 7 5 4 3 3 5
3 3 4 4 3 3 3 3 3 3 7 7 7 10 9 5 1 3 3 6 6 4 2 8 9 8 8 8 7 6 4 3 6 4 6 5 7 8 9 8 8 7 8 9 9 11 16 26 33 33 28 23 21 20 19 17 17 18 19 20 20 19 17 17 16 14 15 15 15 14 12 11 10 11 10 10 10 11 10 10 9 6 5 5 3 4
2 1 2 3 4 4 4 3 3 4 7 7 9 15 14 5 1 2 5 6 3 2 2 5 8 9 8 9 8 5 2 5 8 8 7 5 3 4 4 5 5 7 8 10 12 14 20 27 30 27 23 21 20 19 18 18 18 18 19 19 19 18 17 17 15 14 14 14 14 14 13 11 10 10 10 10 10 11 11 11 10 8 7 6 5 4
1 1 1 2 3 3 3 3 3 5 7 8 10 12 7 4 3 5 5 2 3 2 1 2 4 6 7 8 8 6 4 7 8 6 4 3 4 5 6 6 8 9 10 12 15 18 22 25 25 22 20 19 19 18 18 19 18 18 19 18 17 17 17 17 15 14 14 13 14 15 14 13 12 11 11 10 11 11 11 11 11 10 9 8 6 5
4 3 2 3 3 2 2 3 3 4 6 7 4 1 3 6 5 5 4 2 5 5 4 4 3 2 2 4 7 7 6 8 7 4 3 5 7 9 9 9 10 11 13 15 18 20 20 21 22 21 18 17 17 17 18 18 18 19 19 18 17 17 18 18 16 15 14 14 15 15 15 14 13 12 11 11 11 12 12 12 12 11 10 10 8 6
3 4 3 3 3 3 3 4 5 6 8 8 5 3 7 10 8 6 6 9 10 10 9 9 8 8 6 4 5 5 6 7 6 4 5 6 9 12 11 11 12 13 14 17 18 18 19 20 20 18 15 13 14 15 17 18 19 20 21 19 18 19 20 20 18 17 16 15 15 16 16 15 14 13 12 12 12 13 13 13 13 11 10 11 10 9
6 8 6 4 4 5 6 7 8 10 12 12 12 12 13 15 15 14 14 14 14 15 14 12 10 10 10 10 9 8 7 6 5 5 5 6 11 15 14 14 15 15 15 17 17 17 18 18 17 14 12 11 12 14 17 18 19 21 21 20 20 21 21 21 21 19 17 16 16 16 16 16 15 14 13 13 14 14 13 12 12 11 11 10 11 10
9 9 5 2 3 5 8 11 12 12 14 16 18 18 17 17 18 17 16 17 17 17 16 16 16 14 13 14 14 13 12 10 9 9 8 8 11 17 18 18 18 18 19 20 20 19 18 18 17 15 13 13 13 14 16 18 18 19 20 21 22 22 22 22 21 20 19 18 16 16 17 18 16 15 15 14 14 14 12 11 10 10 10 10 10 11
4 6 4 2 2 3 6 8 9 12 17 18 17 17 18 18 18 18 18 18 16 14 14 16 17 17 17 17 17 15 14 13 13 14 13 12 13 16 19 22 22 22 22 22 22 21 21 22 21 20 17 16 14 14 16 17 16 16 19 22 23 23 23 23 22 20 20 19 18 18 18 19 18 17 16 16 15 14 12 11 10 10 10 9 9 10
2 3 3 3 4 4 7 9 9 13 18 18 17 17 18 17 18 17 15 11 9 8 9 11 12 15 17 19 19 18 16 15 15 16 17 17 17 16 18 22 24 25 25 25 24 25 25 25 24 23 21 19 16 14 15 16 17 16 18 23 25 25 25 24 23 21 21 21 19 19 19 19 18 18 18 17 16 14 12 11 10 10 9 8 8 8
6 4 3 4 3 4 9 11 9 9 13 15 16 16 16 14 13 12 11 9 9 10 11 11 12 12 12 15 16 17 18 18 18 18 18 19 20 18 18 18 20 23 26 28 28 28 28 28 27 26 24 22 18 15 14 15 17 17 18 22 25 27 27 26 24 23 22 21 21 20 20 20 20 20 20 19 17 15 13 11 10 9 9 8 8 8
8 4 3 4 4 4 8 12 10 6 9 15 16 15 14 14 13 15 15 15 14 15 15 15 16 15 14 15 16 17 19 20 20 19 18 17 17 18 19 18 18 19 22 27 31 32 31 30 29 28 26 24 21 18 15 14 16 18 19 21 24 26 27 26 25 24 24 23 23 22 21 22 22 22 22 20 19 17 15 14 12 11 11 10 9 9
13 10 7 6 6 8 15 24 21 13 14 20 21 18 17 19 20 22 23 22 20 20 20 19 19 19 18 18 18 18 20 21 20 20 20 19 19 20 20 22 23 23 22 24 31 35 35 33 32 31 29 26 24 22 19 16 16 18 21 22 23 25 27 27 27 26 26 25 25 24 23 24 24 24 23 22 20 18 17 16 15 14 12 12 11 10
Wind_Direction
127 49 336 224 254 230 186 177 175 163 132 140 127 111 141 146 222 280 317 308 71 99 158 148 143 152 153 153 155 158 154 147 151 158 163 164 164 165 163 161 162 162 160 160 166 170 174 180 186 190 194 197 195 195 196 197 200 201 205 210 211 214 223 233 240 250 258 263 272 274 274 271 267 264 260 256 255 254 253 252 253 257 262 265 267 273
114 60 292 235 236 261 224 169 162 133 118 117 116 113 135 154 225 266 301 311 36 91 162 152 142 155 153 148 158 156 154 164 165 163 170 172 170 171 170 170 168 163 160 163 169 173 179 184 188 193 196 198 199 200 200 199 200 200 203 209 218 228 238 257 266 273 280 281 281 279 277 274 271 269 265 261 258 255 250 249 250 251 254 259 264 268
35 23 274 263 253 296 269 157 137 98 103 96 107 120 154 206 274 310 301 335 28 86 146 163 147 161 167 157 164 167 168 178 175 169 172 175 176 176 176 175 172 166 165 170 173 175 179 183 186 191 197 201 205 209 209 205 203 200 205 224 248 271 287 299 304 306 305 302 300 297 293 290 287 285 281 277 273 269 260 251 249 250 252 255 260 265
35 260 265 284 311 23 35 126 95 58 67 98 120 120 178 235 118 295 295 5 24 92 136 153 135 147 175 166 169 180 181 179 177 175 175 178 181 181 179 176 172 168 169 172 174 175 178 184 189 191 198 206 210 215 216 209 210 215 225 249 267 283 293 301 308 311 311 310 310 308 307 305 299 294 293 291 288 284 274 260 252 251 250 252 256 262
182 239 264 329 346 35 57 74 99 87 65 114 149 145 163 215 175 188 263 3 20 1 125 124 87 101 174 172 184 195 192 181 176 176 178 184 186 180 175 174 173 170 171 173 174 178 184 188 190 191 197 206 211 215 218 216 219 225 236 257 270 276 284 292 298 304 309 311 312 312 311 306 296 291 297 301 301 299 289 271 258 253 252 251 251 256
186 266 5 25 342 356 61 63 133 129 116 164 209 196 186 201 189 188 235 41 37 318 225 113 92 300 218 175 188 199 199 180 175 179 184 187 183 175 172 174 175 174 175 175 172 176 185 187 187 190 194 200 205 210 216 222 224 229 241 254 264 268 277 283 290 299 308 314 316 319 321 317 312 316 324 327 326 325 320 305 281 264 258 257 254 256
242 3 22 41 339 0 54 59 193 130 114 222 235 190 189 198 191 191 180 139 119 247 253 102 130 243 312 212 197 189 191 187 178 183 187 183 176 173 174 175 176 177 178 178 175 177 182 185 188 188 190 192 194 200 207 213 219 228 242 255 263 270 281 287 294 303 312 321 327 329 333 334 333 337 341 343 344 338 333 328 316 287 267 261 258 258
231 23 28 37 32 43 54 45 188 123 111 231 243 164 170 221 225 199 171 167 197 193 336 22 104 130 291 256 224 183 177 181 180 187 189 182 177 175 176 178 179 180 181 179 177 179 180 183 185 182 183 183 182 188 194 201 213 231 251 263 267 274 287 296 305 316 322 330 338 338 336 339 342 347 353 353 350 345 339 334 328 315 288 269 262 262
283 39 57 66 42 47 226 242 198 131 113 239 243 156 124 282 250 178 155 171 201 97 348 313 77 100 257 272 276 173 160 171 187 192 187 182 181 178 176 178 180 181 183 180 177 178 179 177 175 173 175 173 170 174 183 202 227 256 268 271 275 284 293 300 314 326 328 334 342 340 332 341 349 356 10 11 3 1 356 349 339 327 316 292 274 267
216 168 160 114 69 319 252 260 207 132 145 260 270 55 42 17 28 98 124 130 49 75 214 260 97 114 264 285 298 161 165 178 189 194 188 185 183 179 176 176 178 181 182 181 178 177 177 172 166 169 173 171 167 165 182 222 254 275 279 280 286 294 296 301 324 337 334 333 338 338 335 347 357 4 17 21 22 24 15 14 17 1 339 315 288 271
242 133 137 108 133 219 225 300 322 108 189 312 24 39 31 16 26 45 69 88 64 28 249 249 204 131 276 279 233 198 204 173 167 188 189 182 180 177 176 175 176 179 180 181 180 176 174 169 165 172 177 176 174 174 194 224 264 282 287 288 293 300 298 307 342 358 348 335 338 344 348 355 1 8 16 21 27 29 25 29 36 35 31 10 324 297
356 36 35 140 193 212 69 2 334 346 358 47 50 51 40 353 6 22 359 37 77 273 263 248 179 120 142 264 238 235 239 168 155 177 184 175 176 174 174 176 177 180 181 182 180 176 174 170 169 178 183 180 176 176 196 237 284 294 296 297 297 298 303 335 8 13 357 343 351 358 353 360 7 10 14 20 25 26 28 34 41 47 54 59 46 8
349 272 265 131 213 202 79 28 332 347 14 48 46 55 68 359 2 14 330 359 145 246 254 227 140 110 229 246 237 233 247 195 163 172 176 172 172 171 173 176 177 180 182 183 182 179 176 172 173 183 186 181 171 168 201 288 309 306 313 318 310 297 317 357 19 19 4 359 9 5 354 2 8 7 10 16 21 22 25 33 40 43 45 49 54 53
339 308 336 48 334 14 106 104 320 330 1 13 5 107 105 98 54 331 280 330 275 269 278 249 179 297 286 268 245 224 224 200 166 168 176 175 172 172 175 176 177 180 182 184 184 181 177 174 175 181 181 175 165 163 198 330 345 330 344 347 325 294 352 13 16 11 4 5 11 6 356 358 1 4 8 10 15 15 18 24 27 29 30 33 44 52
49 326 291 172 260 218 128 162 172 164 6 320 191 131 126 145 135 204 229 194 235 274 302 296 152 188 221 258 256 224 206 186 159 164 174 175 174 172 172 174 176 179 181 183 183 182 179 175 173 177 177 173 165 152 156 57 29 7 1 355 331 310 32 23 359 351 343 338 349 353 352 349 349 4 11 8 7 5 6 11 13 11 14 25 38 49
81 272 263 264 192 176 182 215 152 102 17 292 104 89 119 180 148 160 191 176 184 282 310 287 211 212 203 261 291 51 146 146 138 150 158 162 169 168 168 173 177 179 181 182 182 182 181 176 174 179 178 174 171 156 142 116 44 20 6 353 335 348 24 355 343 348 336 316 310 320 332 337 338 348 0 1 358 356 355 358 6 3 1 17 35 51
54 276 276 311 272 201 180 191 153 122 144 311 46 97 234 165 123 112 285 316 84 79 280 261 255 290 338 305 319 35 85 98 112 137 145 149 160 165 167 173 178 181 181 182 183 181 180 178 179 183 178 175 175 167 157 158 80 34 1 347 351 2 329 293 310 338 339 328 316 312 312 315 324 336 347 356 356 355 355 353 360 356 349 7 21 20
125 285 283 260 247 255 194 140 144 151 144 109 97 209 214 61 77 103 94 358 40 93 273 290 254 281 15 291 317 25 95 126 121 136 143 149 156 164 172 176 179 183 182 182 182 181 181 181 182 183 178 176 174 166 173 182 161 106 340 338 351 349 313 289 290 323 332 332 333 322 302 298 310 337 357 360 1 0 1 1 3 1 357 11 7 348
117 30 294 291 329 293 314 64 354 306 125 131 168 176 103 85 346 25 110 319 16 239 280 308 288 243 178 218 272 319 159 164 161 148 148 158 162 166 173 177 179 181 181 183 183 182 182 183 184 180 175 176 173 172 186 182 174 191 303 329 331 319 311 303 287 307 322 333 343 336 298 281 291 348 26 13 9 9 14 18 22 25 23 25 21 9
93 90 280 301 355 320 341 39 292 291 344 62 71 15 47 137 169 179 175 160 152 202 257 311 329 269 228 218 194 206 197 169 169 168 167 177 173 169 172 175 178 180 182 184 183 183 183 183 182 176 171 174 175 183 192 182 184 209 249 299 300 287 297 293 275 284 316 343 355 347 258 244 249 91 78 58 29 30 40 39 38 36 31 31 31 24
52 87 246 300 346 11 333 276 193 220 243 80 74 333 359 44 127 114 280 160 133 146 184 243 306 273 255 215 181 201 198 170 173 178 186 189 181 173 172 174 177 181 184 185 185 184 183 182 179 173 168 171 178 188 191 187 193 210 233 276 289 278 282 271 257 268 314 352 4 353 211 186 148 123 115 104 60 54 56 51 50 41 28 21 16 0
65 109 210 292 337 334 240 243 247 242 209 156 158 195 171 136 123 101 299 284 110 135 164 164 246 266 261 227 197 200 189 180 182 180 186 194 188 179 177 178 180 184 185 186 186 185 181 179 176 171 169 173 184 191 188 192 201 208 233 279 294 295 289 245 235 263 314 358 7 13 168 150 139 131 125 125 83 65 64 60 60 49 30 25 21 8
129 105 65 285 262 248 262 271 284 270 200 128 126 166 142 119 117 126 206 257 300 7 195 134 214 267 265 243 223 213 191 180 184 187 188 191 191 188 186 185 186 189 190 188 186 184 180 178 175 172 173 178 187 191 190 198 207 209 241 278 288 308 309 216 218 256 315 14 23 56 144 140 137 134 130 129 100 69 68 66 64 53 38 41 38 26
57 80 42 305 288 295 305 312 354 38 64 60 354 18 134 149 145 153 177 182 175 237 268 84 262 271 274 253 220 211 189 163 170 184 191 194 195 195 193 191 189 190 189 187 185 183 179 176 173 174 178 181 187 192 195 201 205 211 240 261 278 304 318 204 207 226 256 41 43 81 144 144 138 136 131 126 107 75 51 50 55 43 23 31 40 39
10 78 83 17 337 337 341 349 357 5 27 24 308 310 189 81 48 77 136 89 217 223 162 140 238 258 273 291 277 233 197 170 166 171 184 197 200 199 198 195 191 189 187 186 184 182 179 175 173 176 182 184 189 193 196 199 204 219 230 241 268 290 317 204 190 195 201 72 61 93 139 142 138 136 132 131 121 89 55 39 44 27 2 12 25 36
115 154 114 105 169 258 278 325 317 320 332 329 316 319 327 43 58 38 91 78 269 238 149 150 217 262 287 317 331 309 206 189 199 172 175 193 201 203 203 199 194 190 188 186 184 182 179 175 174 179 185 189 190 191 194 200 209 221 220 231 265 288 316 246 183 189 195 128 89 101 129 132 130 130 124 127 130 114 108 78 13 340 354 11 9 19
90 80 121 139 161 193 198 214 231 242 313 305 303 314 314 308 84 91 92 149 201 207 228 215 206 248 288 294 301 278 209 192 224 206 184 184 195 201 201 200 198 194 190 188 185 182 180 177 178 182 187 190 190 192 201 209 215 217 216 229 263 287 305 238 183 182 183 162 118 110 120 118 118 124 120 119 119 116 130 141 220 274 357 7 347 7
84 14 300 155 179 212 203 225 259 277 270 268 277 294 298 295 306 24 236 222 173 144 282 255 199 195 261 262 251 245 225 208 220 211 196 191 194 199 199 197 195 192 190 187 184 183 181 179 182 186 189 190 192 198 207 212 215 216 218 233 256 272 280 213 176 164 162 162 144 128 128 123 127 133 131 133 130 118 118 119 156 183 117 333 325 9
104 290 260 189 256 263 243 261 287 311 283 277 281 280 285 288 282 267 252 220 168 187 247 238 202 206 240 245 232 230 226 224 225 213 202 200 199 195 192 189 186 185 185 183 182 183 184 186 190 194 194 194 197 201 204 206 210 211 216 229 241 252 250 189 170 161 158 162 158 147 143 144 150 153 155 158 151 136 131 102 116 154 193 248 323 17
102 237 246 179 332 307 295 291 322 360 325 304 301 286 275 265 251 245 254 238 204 219 239 233 226 234 242 234 235 245 245 241 240 227 210 203 198 190 185 184 182 181 181 182 184 188 191 194 197 199 197 197 199 201 202 207 214 215 218 223 228 236 225 177 169 169 166 166 163 156 157 162 165 166 169 170 164 160 173 174 113 121 146 155 35 34
95 239 249 108 36 312 298 310 340 354 319 296 296 287 277 277 265 245 244 245 238 248 253 250 253 261 253 233 236 252 256 252 252 244 222 201 191 186 184 184 184 184 185 188 192 196 198 199 199 200 200 199 201 204 207 213 217 219 220 219 220 227 216 183 171 169 168 165 161 163 173 181 182 179 177 179 185 187 182 148 113 102 100 87 73 70
107 236 318 64 40 290 285 326 333 330 325 301 284 284 300 308 287 254 240 223 207 224 248 265 271 265 259 248 246 257 259 248 242 240 224 200 188 185 185 187 189 191 193 196 200 202 201 200 201 204 204 203 205 207 211 215 217 218 218 217 218 217 208 193 173 164 166 165 163 171 181 188 193 194 186 182 192 199 185 152 119 97 89 74 70 79
143 127 24 97 67 279 278 314 336 351 354 313 259 245 321 308 285 278 272 243 206 187 196 227 237 239 250 259 261 268 267 253 239 235 218 196 186 185 189 193 196 199 202 205 206 206 205 204 205 207 208 208 209 210 213 217 221 223 221 218 214 201 191 185 173 169 171 167 168 180 186 189 196 199 188 170 177 187 184 172 148 110 97 76 70 82
153 128 163 168 144 268 277 322 3 3 324 264 235 206 247 268 271 275 268 251 237 207 194 223 238 245 257 253 238 248 255 235 214 211 202 189 185 190 197 203 205 206 208 211 211 210 208 207 207 208 211 212 210 210 213 218 222 223 216 209 201 190 182 177 173 175 175 169 174 187 195 197 198 198 194 167 164 178 186 186 166 117 102 89 82 91
151 142 191 176 145 244 295 20 18 299 244 244 270 286 270 251 245 250 261 266 259 261 283 286 271 254 249 251 251 259 263 239 200 186 186 187 192 199 204 208 209 209 211 214 216 214 211 209 208 208 209 211 209 207 209 213 216 214 206 198 193 187 179 174 175 177 176 176 184 194 200 202 196 189 186 171 167 178 184 182 158 114 101 99 95 96
159 154 173 178 170 250 12 65 192 255 259 277 300 305 301 300 316 350 319 299 269 266 288 281 273 267 259 262 268 270 269 250 208 196 199 201 202 203 204 204 202 206 214 219 219 218 216 213 212 211 209 207 205 204 208 213 215 209 201 196 194 187 178 175 182 185 183 184 191 198 201 201 193 182 174 169 172 176 177 180 169 124 106 108 104 98
152 141 165 224 224 187 200 218 241 303 307 308 306 302 300 276 192 126 330 283 267 285 294 270 271 280 272 275 280 260 215 151 139 212 208 197 194 198 203 203 203 212 223 226 220 221 222 220 216 212 209 205 201 203 209 212 212 207 201 196 191 186 181 180 185 190 190 190 194 199 199 197 192 183 176 176 177 176 179 186 183 145 117 117 114 103
162 165 176 199 227 138 188 275 319 331 297 271 257 269 282 262 199 138 98 295 278 299 328 311 287 296 296 310 320 155 130 94 49 310 193 186 194 199 206 212 214 217 224 231 223 212 215 217 214 209 206 203 200 205 211 212 211 208 204 195 188 186 186 186 189 192 193 195 200 201 198 196 195 187 182 182 182 181 184 187 181 161 135 128 125 113
156 138 133 146 191 146 160 238 240 232 253 250 254 267 271 240 167 85 29 309 270 269 47 70 44 357 8 32 57 109 104 85 267 272 226 203 208 202 203 210 209 208 218 234 238 223 213 212 208 203 201 201 203 206 209 212 212 210 205 194 187 189 190 190 194 196 196 200 205 204 199 197 195 191 187 184 184 185 187 185 179 172 169 174 146 123
112 75 108 145 199 187 177 223 227 238 254 247 242 250 248 244 313 27 324 275 250 229 130 93 80 63 54 51 58 84 101 161 195 162 109 136 176 182 194 204 203 210 222 226 229 224 211 205 200 197 197 202 206 207 208 211 212 208 202 193 188 193 196 195 199 201 199 201 203 204 203 199 194 193 191 186 187 188 188 187 185 181 191 208 190 142
115 108 148 178 205 199 200 235 263 265 258 243 248 257 256 252 226 202 225 244 253 231 177 116 101 99 92 78 76 80 99 154 159 148 131 129 149 180 204 225 233 237 237 226 215 205 199 197 196 196 200 203 205 208 211 213 210 204 200 194 194 198 200 200 203 204 203 203 201 203 205 201 196 196 194 190 189 189 189 189 185 175 170 178 179 171
182 170 158 167 194 194 189 219 270 285 262 240 252 263 241 155 177 223 221 271 341 350 33 106 115 122 118 111 113 117 129 148 155 160 167 189 222 223 224 237 232 216 207 204 200 193 190 191 192 196 201 204 209 217 218 214 209 204 201 201 202 201 200 202 205 208 210 208 204 205 206 203 198 197 196 195 191 189 189 184 178 170 157 152 155 168
186 197 218 196 186 169 167 201 232 275 251 209 195 253 158 166 208 223 210 284 315 315 317 317 299 251 163 142 136 132 149 169 176 191 206 210 217 217 219 228 222 201 186 185 188 191 192 192 193 197 203 209 216 220 217 213 209 206 209 211 207 202 201 205 209 215 218 212 205 205 206 204 200 197 197 199 195 191 187 179 175 174 163 156 163 178
192 183 203 220 189 159 178 206 210 230 228 201 180 200 206 206 218 233 247 266 279 281 281 284 283 278 262 217 172 155 166 182 196 233 251 237 220 211 208 209 205 195 186 184 187 192 196 196 195 196 204 217 222 218 214 213 211 212 216 216 210 205 205 209 216 223 223 215 206 202 202 202 202 199 199 199 195 189 185 179 178 181 176 172 179 193
211 193 191 221 218 193 202 220 227 233 231 220 220 230 226 224 238 256 261 261 267 271 266 258 258 265 258 240 226 216 209 209 225 247 266 254 223 211 208 209 209 209 206 202 200 203 205 205 202 202 213 227 229 222 217 215 216 220 221 217 212 210 210 213 220 225 224 217 208 202 201 202 202 201 200 199 197 195 192 187 184 185 186 187 192 204
220 206 190 208 251 256 251 243 241 245 240 230 229 237 245 250 259 268 267 263 269 276 272 263 260 263 257 247 243 239 232 232 240 249 263 263 233 217 215 216 218 219 218 215 213 214 214 213 212 214 222 228 230 229 224 221 224 229 226 219 215 214 215 218 222 225 224 220 212 206 205 204 203 202 202 201 201 200 199 197 193 192 195 200 205 216
245 208 191 194 229 264 270 255 245 249 250 247 245 251 259 265 270 272 271 271 274 279 278 270 265 264 261 251 244 242 242 246 251 253 253 254 244 231 224 221 220 221 223 224 225 223 219 215 215 219 223 226 230 235 232 229 232 234 228 221 218 217 219 221 224 225 224 221 215 209 208 208 206 204 204 205 205 202 199 199 201 202 205 208 213 221
232 189 205 222 204 217 258 262 254 254 259 259 260 265 270 272 273 272 271 272 274 272 271 270 266 265 261 250 243 245 249 249 250 251 249 245 244 241 234 228 225 226 229 231 230 226 220 218 220 224 227 228 230 236 239 238 235 231 226 222 221 221 222 224 225 226 225 220 216 213 212 211 209 207 207 208 208 205 200 196 196 202 208 209 210 215
196 196 201 205 215 266 279 276 268 265 267 260 254 262 270 272 275 280 277 270 267 269 272 273 274 273 267 258 256 260 262 261 259 258 254 249 245 241 240 240 238 235 233 232 229 226 224 224 226 228 230 230 229 230 237 241 238 232 227 224 223 223 225 227 226 226 224 221 217 216 215 212 210 209 210 211 210 207 201 195 197 208 215 213 212 213
191 211 174 191 246 264 260 261 260 261 268 266 264 267 265 262 271 282 282 275 270 272 276 275 272 269 264 262 263 264 265 266 261 253 245 242 242 241 243 249 253 250 243 238 232 228 227 228 230 232 232 231 229 228 230 235 237 235 231 227 225 225 226 227 227 226 224 221 219 218 216 212 210 211 213 214 215 212 205 201 207 216 219 217 217 218
198 217 186 189 230 237 248 259 259 248 254 268 275 276 270 268 274 277 277 276 273 274 277 275 271 267 263 262 263 263 263 261 256 250 248 250 252 251 248 248 251 252 249 243 235 230 227 227 230 232 232 231 230 229 227 228 231 235 234 231 229 228 227 228 228 227 225 222 220 220 218 214 213 214 215 215 217 217 213 209 214 221 222 222 221 224